Borger, TX

12:26 PM CDT on March 28, 2017 (GMT -0500)
Hutchinson County

Weather History for KBGD - May, 2013

Change the Weather History Date:

Tuesday, May 28, 2013

  Actual Average Record
Temperature  
Mean Temperature 83 °F 72 °F  
Max Temperature 96 °F 84 °F 100 °F (1998)
Min Temperature 69 °F 59 °F 38 °F (1992)
Degree Days  
Heating Degree Days 0 0  
Month to date heating degree days 79 60  
Since 1 July heating degree days 3592 3763  
Cooling Degree Days 18 7  
Month to date cooling degree days 208 130  
Year to date cooling degree days 254 174  
Growing Degree Days 32 (Base 50)    
Moisture  
Dew Point 47 °F    
Average Humidity 43    
Maximum Humidity 73    
Minimum Humidity 12    
Precipitation  
Precipitation T in 0.14 in 1.42 in (1958)
Month to date precipitation 0.96 2.49  
Year to date precipitation 4.35 6.65  
Snow  
Snow 0.00 in - T in (1996)
Month to date snowfall T  
Since 1 July snowfall 27.5  
Snow Depth 0.00 in    
Sea Level Pressure  
Sea Level Pressure 29.56 in    
Wind  
Wind Speed 18 mph (SSW)    
Max Wind Speed 40 mph    
Max Gust Speed 55 mph    
Visibility 9 miles    
Events Rain    
T = Trace of Precipitation, MM = Missing Value Source: NWS Daily Summary

Daily Weather History Graph

Daily Weather History Graph

Search for Another Location

Airport or City:

Trip Planner

Search our weather history database for the weather conditions in past years. The results will help you decide how hot, cold, wet, or windy it might be!

Date:

Astronomy

May. 28, 2013 Rise Set
Actual Time 6:32 AM CDT 8:53 PM CDT
Civil Twilight 6:03 AM CDT 9:23 PM CDT
Nautical Twilight 5:27 AM CDT 9:59 PM CDT
Astronomical Twilight 4:47 AM CDT 10:38 PM CDT
Moon No Moon Rise 10:19 AM CDT
Length of Visible Light 15h 20m
Length of Day
14h 21m
Waning Gibbous, 82% of the Moon is Illuminated
May 28
Waning Gibbous
May 31
Last Quarter
Jun 8
New
Jun 16
First Quarter
Jun 23
Full

Hourly Weather History & Observations

Time (CDT) Temp. Heat Index Dew Point Humidity Pressure Visibility Wind Dir Wind Speed Gust Speed Precip Events Conditions
12:51 AM 80.1 °F 81.7 °F 64.0 °F 58% 29.56 in 10.0 mi South 15.0 mph 27.6 mph N/A   Clear
1:51 AM 79.0 °F - 64.0 °F 60% 29.56 in 10.0 mi SSW 18.4 mph 28.8 mph N/A   Clear
2:51 AM 77.0 °F - 64.0 °F 64% 29.56 in 10.0 mi South 13.8 mph 23.0 mph N/A   Clear
3:51 AM 73.9 °F - 63.0 °F 68% 29.56 in 10.0 mi SSW 18.4 mph 27.6 mph N/A   Clear
4:51 AM 73.0 °F - 63.0 °F 71% 29.57 in 10.0 mi SSW 16.1 mph 26.5 mph N/A   Clear
5:51 AM 71.1 °F - 62.1 °F 73% 29.59 in 10.0 mi SSW 10.4 mph - N/A   Clear
6:51 AM 69.1 °F - 61.0 °F 75% 29.59 in 10.0 mi SSW 12.7 mph 21.9 mph N/A   Clear
7:51 AM 71.1 °F - 61.0 °F 70% 29.59 in 10.0 mi SSW 15.0 mph 24.2 mph N/A   Clear
8:51 AM 75.9 °F - 59.0 °F 56% 29.59 in 10.0 mi WSW 15.0 mph - N/A   Clear
9:51 AM 81.0 °F 80.7 °F 55.0 °F 41% 29.58 in 10.0 mi SW 8.1 mph - N/A   Clear
10:51 AM 87.1 °F - 44.1 °F 22% 29.57 in 10.0 mi WSW 6.9 mph - N/A   Clear
11:51 AM 91.9 °F - 35.1 °F 13% 29.56 in 10.0 mi Variable 5.8 mph - N/A   Clear
12:51 PM 95.0 °F - 46.9 °F 19% 29.55 in 10.0 mi South 20.7 mph 28.8 mph N/A   Clear
1:51 PM 93.0 °F 90.6 °F 53.1 °F 26% 29.55 in 10.0 mi South 16.1 mph 29.9 mph N/A   Clear
2:51 PM 93.9 °F 91.7 °F 54.0 °F 26% 29.52 in 10.0 mi South 20.7 mph 28.8 mph N/A   Clear
3:51 PM 95.0 °F - 51.1 °F 22% 29.47 in 10.0 mi South 19.6 mph 35.7 mph N/A   Partly Cloudy
4:51 PM 91.0 °F - 48.0 °F 23% 29.48 in 10.0 mi South 26.5 mph 40.3 mph N/A   Clear
5:30 PM 87.8 °F - 44.6 °F 22% 29.61 in 6.0 mi SSW 32.2 mph 52.9 mph N/A   Haze
5:51 PM 88.0 °F - 28.9 °F 12% 29.49 in 10.0 mi SW 23.0 mph 43.7 mph N/A   Scattered Clouds
6:51 PM 87.1 °F - 34.0 °F 15% 29.50 in 7.0 mi SSW 26.5 mph 42.6 mph N/A   Mostly Cloudy
7:30 PM 84.2 °F - 33.8 °F 16% 29.61 in 10.0 mi SSW 21.9 mph 40.3 mph N/A   Scattered Clouds
7:51 PM 86.0 °F - 34.0 °F 16% 29.48 in 10.0 mi South 25.3 mph 43.7 mph N/A   Clear
8:51 PM 82.0 °F - 41.0 °F 23% 29.48 in 5.0 mi South 32.2 mph 47.2 mph N/A   Haze
9:11 PM 82.4 °F - 37.4 °F 20% 29.61 in 4.0 mi South 34.5 mph 50.6 mph N/A   Haze
9:19 PM 82.4 °F - 37.4 °F 20% 29.61 in 3.0 mi South 34.5 mph 50.6 mph N/A   Haze
9:33 PM 82.4 °F - 35.6 °F 19% 29.63 in 5.0 mi SSW 34.5 mph 52.9 mph N/A   Haze
9:49 PM 82.4 °F - 37.4 °F 20% 29.64 in 9.0 mi SSW 31.1 mph 51.8 mph N/A   Partly Cloudy
9:51 PM 82.0 °F - 37.9 °F 21% 29.49 in 10.0 mi SSW 28.8 mph 50.6 mph N/A   Partly Cloudy
10:51 PM 82.9 °F - 37.0 °F 19% 29.55 in 10.0 mi WSW 23.0 mph 40.3 mph N/A   Clear
11:51 PM 78.1 °F - 42.1 °F 28% 29.60 in 10.0 mi NW 16.1 mph 40.3 mph 0.00 in Rain Light Rain
11:58 PM 78.8 °F - 41.0 °F 26% 29.74 in 10.0 mi NNW 11.5 mph 31.1 mph 0.00 in Rain Light Rain